Other Surface Observations
Issued by NWS

Home | Current Version | Previous Version | Text Only | Print | Product List | Glossary On
Versions: 1 2 3 4 5 6 7 8 9 10 11 12 13 14 15 16 17 18 19 20 21 22 23 24 25 26 27 28 29 30 31 32 33 34 35 36 37 38 39 40 41 42 43 44 45 46 47 48 49 50
000
SXUS52 KTAE 240118
OSOTAE
OSOTAE
North Florida/South Alabama/Southwest Georgia Weather Roundup
National Weather Service Tallahassee Florida
900 PM EDT TUE SEP 23 2014

Note: "fair" indicates few or no clouds below 12,000 feet with no
significant weather and/or obstructions to visibility.

!FLZ017-115-028-034-025-240200
...North Florida...

CITY           SKY/WX    TMP DP  RH WIND       PRES   REMARKS
TALLAHASSEE    PTCLDY    77  62  59 NE7       30.06R
APALACHICOLA   CLEAR     76  65  68 NE7       30.04R
PERRY          CLEAR     73  63  68 E3        30.07R
CROSS CITY       N/A     74  67  78 NE6       30.04R
HOMERVILLE     CLOUDY    77  66  69 E12G18    30.10R
JACKSONVILLE   MOCLDY    73  69  87 N12       30.06R
$$

!FLZ112-006-005-002-011-240200
...Florida Panhandle...

CITY           SKY/WX    TMP DP  RH WIND       PRES   REMARKS
MARIANNA       CLEAR     71  66  84 NE6       30.08R
BONIFAY        FAIR      67  66  97 MISG      30.09R
PANAMA CITY NW FAIR      74  64  71 N7        30.05R
TYNDALL AFB    CLEAR     76  67  72 NE8       30.05R
TYND DRONE APT FAIR      75  67  74 MISG      30.04R
DE FUNIAK SPR  FAIR      71  63  75 NE5       30.08S
EGLIN AFB      CLEAR     75  63  67 NE8       30.06R
DESTIN         CLEAR     77  64  64 NE8       30.05R
HURLBURT       CLEAR     73  60  64 NE5       30.05R
CRESTVIEW      CLEAR     71  61  70 NE5       30.09R
PENSACOLA      CLEAR     72  62  71 N7        30.06R
$$

!ALZ063-066-240200
...South Alabama...

CITY           SKY/WX    TMP DP  RH WIND       PRES   REMARKS
DOTHAN         CLEAR     69  61  75 NE5       30.14R
OZARK CAIRNS   CLEAR     71  61  69 NE7       30.10R
FT RUCKER HELI CLEAR     70  62  76 NE3       30.09R
RUCKER HELI 3  FAIR      70  62  76 NE3       30.13R
RUCKER HELI 2  FAIR      73  60  63 NE7       30.10R
FLORALA APT    CLEAR     69  60  73 N5        30.11R
ANDALUSIA      CLEAR     74  61  63 E3        30.10R
TROY           CLEAR     69  59  70 NE5       30.12R
EUFALA         FAIR      69  61  75 CALM      30.11R
MOBILE         CLEAR     71  59  65 E5        30.07R
$$

!GAZ120>161-240200
...Southwest and South Central Georgia...

CITY           SKY/WX    TMP DP  RH WIND       PRES   REMARKS
THOMASVILLE    FAIR      72  63  73 NE7       30.10R
BAINBRIDGE     CLEAR     73  64  73 NE7       30.09R
MOODY AFB      PTCLDY    72  64  74 NE10      30.09R
VALDOSTA       CLOUDY    75  63  66 N6        30.08R
MOULTRIE       CLEAR     72  63  73 NE7       30.10S
BLAKELY        CLEAR     72  64  78 NE3         N/A
ALBANY         CLEAR     71  64  78 N6        30.12R
TIFTON         FAIR      71  61  70 NE3       30.11R
FITZGERALD     FAIR      72  63  72 NE8       30.15R
CORDELE        FAIR      70  64  80 E5        30.14R
AMERICUS       FAIR      66  64  94 NE5       30.15R
$$

!GMZ750-755-770-775-240200
...Coastal and Buoy Obs...

STATION/POSITION TIME  TEMP    WIND        PRES    VSBY  WAVE
                       AIR SEA DIR/SP/G                  HT/PER
                 (UTC) (F)     (DEG/KT/KT) (MB)    (MI)  (FT/S)
KEATON BEACH     0100   74      40/  4/  6 1017.7R
CEDAR KEY        0100   75      50/ 10/ 12 1017.2R
C TOWER          0100   81      50/ 24/ 26 1016.3R
APALACHICOLA BUO 0100   81 84   60/ 19/ 23 1015.7R         4/ 5
PANAMA CITY BUOY 0041   81 84   60/ 17/ 19 1015.9R         4/ 5
MOBILE BUOY      NOT AVBL
ORANGE BCH AL BU 0100   79 84   70/ 12/ 14 1017.5R         2/ 5
$$



USA.gov is the U.S. government's official web portal to all federal, state and local government web resources and services.